Regional Weather Roundup
Issued by NWS

Home | Current Version | Previous Version | Text Only | Print | Product List | Glossary On
Versions: 1 2 3 4 5 6 7 8 9 10 11 12 13 14 15 16 17 18 19 20 21 22 23 24 25 26 27 28 29 30 31 32 33 34 35 36 37 38 39 40 41 42 43 44 45 46 47 48 49 50
000
ASUS43 KLSX 021507
RWRMO

WEATHER SUMMARY FOR MISSOURI
NATIONAL WEATHER SERVICE SPRINGFIELD MO
900 AM CST MON MAR 02 2015

NOTE: "FAIR" INDICATES FEW OR NO CLOUDS BELOW 12,000 FEET WITH NO
       SIGNIFICANT WEATHER AND/OR OBSTRUCTIONS TO VISIBILITY.
       CURRENT SKY AND/OR WEATHER CONDITIONS ARE NOT AVAILABLE FOR
       CHILLICOTHE AND FARMINGTON.

MOZ001>031-035>038-043-044-053-054-021600-
...NORTHERN AND WESTERN MISSOURI...

CITY           SKY/WX    TMP DP  RH WIND       PRES   REMARKS
KANSAS CTY INT CLOUDY    28  23  81 S6        30.49R WCI  22
KANSAS C DTWN  SUNNY     28  24  85 CALM      30.51S FOG
LEE`S SUMMIT   PTSUNNY   28  22  78 SE5       30.49S WCI  23
ST JOSEPH      CLOUDY    30  24  78 CALM      30.50S HAZE
CHILLICOTHE      N/A     28  20  71 E7        30.53S WCI  21
KIRKSVILLE     MOSUNNY   25  15  66 NE8       30.54R WCI  16

$$
MOZ066>068-077>081-088>096-101>105-021600-
...SOUTHWEST MISSOURI...

CITY           SKY/WX    TMP DP  RH WIND       PRES   REMARKS
SPRINGFIELD    MOSUNNY   29  18  63 E10       30.44F WCI  20
JOPLIN         MOSUNNY   28  19  69 E10       30.46R WCI  19

$$
MOZ032>034-039>042-045>050-055>058-069>072-021600-
...CENTRAL MISSOURI...

CITY           SKY/WX    TMP DP  RH WIND       PRES   REMARKS
COLUMBIA       PTSUNNY   23  19  85 E6        30.52S WCI  16
JEFFERSON CITY MOSUNNY   18  15  88 E3        30.55F FOG
ROLLA          SUNNY     25  20  81 E7        30.49R WCI  17
SEDALIA        MOSUNNY   21  18  88 SE3       30.52S FOG
WHITEMAN AFB   PTSUNNY   18  15  90 CALM      30.51R
WARRENSBURG    MOSUNNY   21  19  93 CALM      30.52S
OSAGE BEACH    MOSUNNY   19  18  93 E3        30.50F

$$
MOZ051-052-059>065-021600-
...EAST CENTRAL MISSOURI...

CITY           SKY/WX    TMP DP  RH WIND       PRES   REMARKS
ST LOUIS INTL  PTSUNNY   27  23  85 CALM      30.55R FOG
SPIRIT OF STL  PTSUNNY   18  16  92 CALM      30.55S
ST CHARLES     MOSUNNY   18  18 100 CALM      30.57S FOG

$$
MOZ072>076-082>087-097>100-106>115-021600-
...SOUTH CENTRAL AND SOUTHEAST MISSOURI...

CITY           SKY/WX    TMP DP  RH WIND       PRES   REMARKS
CAPE GIRARDEAU MOSUNNY   30  19  63 NE12      30.54F WCI  20
FARMINGTON     MOSUNNY   27  21  80 E12       30.55R WCI  16
POPLAR BLUFF   SUNNY     30  20  66 NE12      30.53R WCI  20
WEST PLAINS    MOSUNNY   29  20  69 NE9       30.46S WCI  20

$$



USA.gov is the U.S. government's official web portal to all federal, state and local government web resources and services.